Temp
73 82 81 73 57 58 54 58 66 64 65 69 71 68 66 69 65 54 73 79 81 79 78 77 74 76 76 76 75 75 76 77 77 78 77 77 77 76 76 76 76 76 78 78 78 76 75 74 73
73 79 74 67 53 49 53 63 60 64 68 70 71 70 68 66 74 72 71 79 82 80 79 79 73 76 76 75 75 75 76 76 77 77 77 77 77 76 76 76 76 76 77 78 77 75 74 73 73
72 81 65 59 55 50 51 62 62 67 70 67 66 71 69 66 73 74 77 79 78 79 80 76 73 75 75 75 75 74 75 75 76 76 77 76 76 76 76 75 75 75 75 75 73 72 73 73 72
74 71 67 53 53 59 59 63 65 65 67 70 68 63 69 74 73 75 78 79 76 78 77 72 73 75 75 75 75 75 75 76 76 76 76 76 75 75 75 74 74 74 74 73 72 73 72 71 71
72 66 54 52 55 60 64 66 65 63 63 66 67 62 66 73 76 77 74 76 75 76 78 77 72 73 75 75 75 74 75 75 75 75 75 75 74 74 74 73 73 72 73 73 72 72 71 70 70
62 63 51 49 55 61 63 65 65 63 65 65 63 62 64 74 73 74 74 71 76 75 76 77 70 70 72 73 74 73 74 73 74 74 74 73 73 73 73 72 72 72 72 72 71 70 70 69 68
59 55 51 52 53 56 60 66 61 60 61 62 64 59 65 70 72 73 73 72 75 74 74 72 74 71 65 68 69 69 71 73 72 73 72 71 71 71 71 71 71 71 71 70 70 69 68 67 67
62 57 51 52 51 52 60 63 64 62 60 69 66 57 58 67 73 72 70 70 72 72 72 72 73 73 72 71 65 65 66 66 68 69 67 66 67 67 67 67 69 70 69 69 68 67 66 65 65
65 51 49 52 52 55 63 58 65 67 62 64 66 62 68 72 72 69 68 65 62 65 68 70 71 69 67 66 64 65 65 65 65 65 63 64 67 67 68 64 67 68 67 67 66 65 64 63 63
56 50 53 58 58 56 60 59 59 58 60 61 62 66 69 69 67 65 63 60 61 61 63 67 67 66 65 66 64 64 64 63 62 61 61 65 65 65 62 60 62 64 64 64 65 64 63 62 57
57 51 57 59 59 60 58 57 62 56 54 57 55 60 63 64 64 62 62 60 60 61 61 63 68 67 64 63 62 62 63 62 62 61 60 61 62 62 59 58 57 56 58 57 58 58 57 57 56
51 59 59 60 59 57 54 59 56 57 57 61 60 61 61 60 60 60 58 59 59 60 61 64 62 65 65 62 61 61 61 61 60 60 60 59 60 60 59 58 57 56 56 56 55 54 55 56 57
53 56 59 59 58 56 58 53 54 55 60 61 62 62 59 59 59 59 59 59 58 58 59 60 60 64 66 63 61 61 61 61 60 59 58 58 56 56 58 58 57 56 56 55 54 55 55 54 56
54 55 55 57 57 57 54 52 54 53 57 57 60 57 57 58 57 57 56 55 56 58 58 60 60 61 65 63 62 61 61 61 60 59 57 56 54 53 53 55 58 58 56 55 54 54 54 54 54
54 47 53 55 56 53 53 47 49 53 54 56 57 55 57 57 57 54 54 53 54 56 57 58 61 61 64 65 64 62 61 61 60 58 57 55 54 53 52 51 51 55 57 56 54 55 54 53 54
47 47 39 52 54 53 48 40 52 52 48 51 54 49 54 55 55 53 54 53 53 53 55 57 62 60 63 63 64 63 61 60 60 58 56 55 54 53 51 50 49 51 52 56 56 54 53 51 50
44 35 42 47 53 50 48 42 50 53 50 48 49 48 51 51 52 51 52 51 52 52 54 55 58 58 61 61 60 60 59 59 59 58 55 54 54 53 51 50 50 50 51 54 55 53 53 50 49
36 37 43 39 47 48 44 44 52 55 50 45 45 44 47 49 48 50 51 51 51 51 52 54 57 55 56 59 58 57 56 56 56 55 54 53 52 52 50 49 48 49 49 50 53 53 53 50 48
42 39 37 44 52 42 41 43 48 53 49 46 46 44 45 47 50 49 50 49 49 49 49 50 51 52 53 57 56 55 54 54 54 53 53 53 52 51 50 49 48 48 47 47 49 50 50 50 50
40 36 36 43 48 43 41 41 47 50 51 48 45 45 44 45 46 48 47 46 46 46 49 51 50 50 50 51 55 55 54 53 53 52 51 51 51 51 50 48 47 47 46 47 48 49 47 49 50
39 36 36 37 42 43 40 36 41 49 50 47 46 45 45 43 43 44 45 43 44 44 48 50 49 49 49 50 53 53 53 52 51 50 50 50 50 50 50 49 48 48 47 46 46 47 47 46 48
32 42 41 39 33 25 38 20 35 44 41 42 43 41 42 43 44 44 43 42 42 43 45 50 50 50 49 49 49 50 48 49 49 49 49 49 50 49 49 48 47 46 46 46 46 48 48 49 47
38 43 39 37 31 29 29 23 31 42 37 39 40 42 41 41 42 41 42 44 43 43 42 44 47 49 50 49 48 47 47 48 48 48 47 47 47 47 47 47 46 46 45 46 46 47 48 49 49
45 39 38 35 30 13 28 26 27 32 37 40 41 41 42 41 41 42 44 44 42 41 41 42 43 44 46 48 48 47 46 46 46 47 47 47 46 46 46 46 46 46 45 44 44 45 46 46 47
38 30 16 14 12 14 30 26 29 36 39 39 40 39 40 40 40 40 40 40 40 40 40 42 41 41 42 42 44 45 46 47 46 46 47 47 46 46 46 46 45 45 45 44 44 45 45 45 45
33 31 18 8 11 20 32 20 31 37 39 42 43 41 41 40 41 40 40 40 40 41 40 40 40 39 40 40 41 42 44 44 45 47 46 46 46 47 48 46 46 45 45 44 44 43 43 44 44
31 25 35 18 18 13 24 31 34 37 36 37 38 39 37 39 40 40 41 42 41 40 39 39 39 39 40 40 40 40 42 42 42 44 45 45 46 47 47 47 46 45 44 44 43 42 42 42 43
33 38 21 20 5 5 20 25 28 31 32 36 36 35 38 39 40 41 41 42 42 41 41 40 40 39 40 40 40 40 39 41 41 41 40 41 43 44 44 46 47 45 43 43 42 41 41 41 40
27 24 27 27 23 9 11 20 35 33 35 34 35 38 39 39 40 41 42 42 43 43 42 40 39 38 38 38 39 39 39 38 38 37 37 37 39 39 40 42 43 44 44 42 41 41 41 40 40
32 28 28 14 17 23 21 23 37 35 36 37 37 40 41 41 41 41 41 41 40 40 41 40 40 39 38 38 37 37 37 36 35 33 33 35 33 34 36 39 41 43 44 43 41 40 40 39 39
MSLP
1014.37 1012.99 1012.47 1012.15 1012.18 1011.28 1010.65 1010.67 1010.91 1010.85 1010.99 1011.85 1011.79 1011.51 1011.31 1011.04 1011.09 1011.86 1011.83 1011.69 1011.38 1011.46 1011.67 1012.15 1012.31 1012.51 1012.66 1012.89 1013.05 1013.13 1013.20 1013.34 1013.35 1013.42 1013.59 1013.70 1013.98 1014.12 1014.43 1014.60 1014.77 1014.86 1014.91 1015.21 1015.47 1015.77 1016.13 1016.37 1016.44
1014.63 1013.36 1012.57 1012.01 1011.93 1011.17 1011.21 1011.18 1011.54 1011.97 1012.12 1012.03 1011.84 1011.64 1011.32 1011.54 1011.58 1011.95 1011.93 1011.92 1011.36 1011.43 1011.74 1012.08 1012.31 1012.59 1012.73 1013.12 1013.19 1013.40 1013.45 1013.49 1013.58 1013.59 1013.71 1013.81 1013.99 1014.28 1014.53 1014.68 1014.88 1015.06 1015.18 1015.22 1015.60 1016.04 1016.49 1016.66 1016.72
1014.64 1013.46 1012.91 1012.18 1011.71 1011.66 1011.87 1012.02 1012.28 1012.51 1012.38 1012.45 1012.36 1012.08 1011.66 1012.34 1012.30 1012.28 1012.16 1012.24 1012.05 1011.86 1011.62 1012.16 1012.58 1012.63 1012.88 1013.20 1013.33 1013.31 1013.62 1013.75 1013.82 1013.90 1013.91 1013.98 1014.13 1014.33 1014.59 1014.87 1014.97 1015.11 1015.32 1015.66 1015.75 1016.31 1016.74 1016.95 1016.93
1014.05 1013.32 1013.03 1012.93 1012.21 1012.14 1012.55 1012.59 1012.86 1012.94 1012.84 1012.69 1012.53 1012.58 1012.65 1013.48 1013.18 1012.99 1012.98 1012.74 1012.31 1012.26 1012.27 1012.51 1012.70 1012.80 1012.80 1013.10 1013.43 1013.57 1013.60 1013.72 1013.86 1014.05 1014.12 1014.19 1014.30 1014.47 1014.71 1014.93 1015.16 1015.47 1015.71 1016.07 1016.48 1016.59 1017.00 1017.19 1017.29
1014.00 1013.31 1013.13 1012.88 1012.66 1012.64 1013.05 1013.31 1013.66 1013.49 1012.97 1012.99 1012.97 1013.19 1013.22 1013.70 1013.62 1013.37 1013.32 1013.04 1012.75 1012.50 1012.23 1012.46 1012.79 1012.84 1012.80 1012.77 1013.37 1013.72 1013.67 1013.76 1013.83 1014.04 1014.17 1014.24 1014.43 1014.63 1014.91 1015.17 1015.47 1015.78 1016.06 1016.33 1016.73 1017.11 1017.35 1017.58 1017.75
1013.87 1013.60 1013.39 1012.95 1012.75 1012.96 1013.38 1013.89 1014.15 1013.72 1013.55 1013.45 1013.71 1013.87 1013.70 1013.57 1013.46 1013.54 1013.46 1013.46 1012.90 1012.79 1012.53 1012.56 1012.81 1013.03 1012.88 1013.35 1013.14 1013.49 1013.61 1013.68 1013.86 1013.96 1014.25 1014.40 1014.47 1014.72 1015.14 1015.41 1015.75 1015.98 1016.41 1016.74 1017.11 1017.43 1017.63 1017.89 1018.08
1014.30 1014.04 1013.69 1013.78 1013.55 1013.54 1013.90 1014.31 1014.39 1014.45 1014.15 1013.82 1013.96 1014.07 1013.48 1013.54 1013.77 1013.70 1013.71 1013.54 1013.02 1012.72 1012.90 1013.15 1013.17 1013.30 1013.38 1013.08 1013.54 1013.73 1013.63 1013.66 1014.02 1014.14 1014.25 1014.47 1014.75 1014.95 1015.30 1015.65 1015.93 1016.36 1016.71 1017.08 1017.48 1017.84 1018.04 1018.19 1018.43
1015.12 1014.65 1014.16 1013.85 1014.22 1014.31 1014.62 1014.73 1014.67 1014.73 1014.65 1014.36 1013.91 1014.14 1014.04 1013.74 1013.85 1013.84 1013.85 1014.32 1014.01 1013.74 1013.52 1013.20 1013.14 1013.21 1013.46 1013.73 1014.06 1014.18 1014.36 1014.42 1014.16 1014.29 1014.53 1014.67 1014.99 1015.27 1015.67 1016.10 1016.25 1016.61 1016.99 1017.41 1017.80 1018.12 1018.45 1018.71 1018.83
1015.57 1015.14 1014.42 1014.58 1014.76 1014.69 1014.81 1015.12 1015.07 1014.86 1014.88 1014.43 1014.28 1014.48 1014.51 1014.15 1013.98 1014.28 1014.26 1014.70 1014.82 1014.99 1014.33 1013.71 1013.47 1013.82 1014.05 1014.60 1014.42 1014.55 1015.02 1015.09 1015.55 1015.48 1014.72 1014.78 1015.11 1015.45 1015.83 1016.30 1016.69 1017.08 1017.28 1017.69 1018.09 1018.43 1018.72 1019.00 1019.14
1016.05 1015.40 1015.19 1015.54 1015.56 1015.62 1015.71 1015.82 1015.75 1015.57 1015.20 1014.92 1014.85 1014.86 1014.87 1014.82 1014.77 1014.85 1015.22 1015.70 1015.68 1015.44 1015.08 1014.84 1014.11 1014.30 1014.43 1014.52 1014.71 1014.73 1015.12 1015.92 1016.28 1016.17 1016.74 1015.03 1015.11 1015.74 1016.35 1017.00 1017.29 1017.66 1017.95 1018.25 1018.46 1018.67 1018.84 1019.14 1019.38
1016.38 1016.33 1016.35 1016.10 1016.45 1016.55 1016.47 1016.49 1016.14 1016.15 1015.94 1015.81 1016.06 1016.06 1016.04 1015.74 1015.63 1015.73 1016.01 1016.51 1016.57 1016.28 1015.81 1015.37 1014.93 1014.33 1014.66 1014.76 1015.12 1014.54 1014.49 1015.56 1016.35 1015.83 1015.30 1016.10 1015.80 1016.24 1016.80 1017.45 1018.13 1018.36 1018.47 1018.68 1018.91 1019.10 1019.11 1019.23 1019.57
1017.19 1016.73 1016.83 1016.74 1016.98 1017.25 1017.08 1016.98 1016.84 1016.70 1016.33 1016.24 1016.45 1016.56 1016.68 1016.77 1016.75 1016.83 1016.93 1017.00 1016.93 1016.73 1016.41 1015.87 1015.61 1015.26 1014.78 1015.16 1015.29 1015.22 1015.13 1015.45 1016.42 1016.26 1016.44 1016.32 1017.05 1016.52 1017.42 1017.82 1018.33 1018.55 1018.72 1018.88 1019.19 1019.50 1019.62 1019.67 1019.90
1017.49 1017.13 1017.42 1017.36 1017.45 1017.49 1017.48 1017.46 1017.34 1016.68 1016.35 1016.60 1016.74 1016.90 1017.05 1017.19 1017.33 1017.48 1017.49 1017.62 1017.40 1017.11 1016.77 1016.34 1015.95 1015.43 1014.86 1015.05 1015.20 1015.42 1015.46 1015.65 1015.81 1016.09 1015.51 1016.86 1018.14 1017.69 1017.94 1018.29 1018.78 1018.96 1019.11 1019.24 1019.52 1019.83 1020.07 1020.22 1020.30
1018.21 1018.01 1017.64 1017.40 1017.46 1017.37 1017.22 1017.13 1017.23 1016.82 1016.73 1016.89 1016.93 1017.17 1017.35 1017.58 1017.80 1017.92 1018.19 1018.30 1018.06 1017.74 1017.07 1016.59 1016.15 1015.65 1015.16 1014.91 1015.02 1015.35 1015.53 1015.59 1015.89 1016.22 1016.64 1016.76 1017.38 1019.08 1018.95 1019.08 1019.23 1019.55 1019.66 1019.58 1019.81 1019.96 1020.38 1020.57 1020.73
1018.73 1018.42 1017.67 1016.93 1017.19 1017.55 1017.82 1017.42 1016.72 1016.59 1017.00 1017.19 1017.07 1017.18 1017.59 1017.88 1018.14 1018.61 1018.81 1018.90 1018.72 1018.28 1017.55 1016.76 1016.27 1015.55 1015.19 1014.81 1014.74 1014.98 1015.47 1015.62 1015.97 1016.52 1017.15 1016.69 1017.04 1018.48 1019.51 1020.04 1020.06 1020.07 1019.87 1020.10 1020.19 1020.16 1020.50 1020.97 1021.12
1019.08 1018.66 1017.94 1016.86 1017.50 1017.88 1018.33 1017.34 1017.09 1017.07 1017.27 1017.33 1017.27 1017.49 1017.95 1018.42 1018.69 1019.05 1019.22 1019.19 1019.20 1018.64 1018.03 1017.05 1016.53 1015.80 1015.07 1014.85 1014.63 1014.78 1015.29 1015.53 1015.92 1016.39 1016.73 1017.16 1017.56 1018.28 1018.71 1019.60 1020.25 1020.36 1020.36 1020.48 1020.91 1020.50 1020.91 1021.31 1021.67
1019.17 1019.07 1018.23 1017.59 1017.76 1018.09 1018.35 1017.70 1017.15 1017.34 1017.44 1017.55 1017.60 1017.94 1018.36 1018.83 1019.25 1019.59 1019.66 1019.62 1019.35 1018.93 1018.51 1017.45 1016.59 1016.27 1015.50 1015.14 1015.09 1015.19 1015.31 1015.74 1016.02 1016.34 1016.62 1017.09 1017.89 1018.50 1018.72 1019.75 1019.88 1020.58 1020.94 1021.43 1020.92 1020.70 1021.01 1021.44 1021.97
1020.01 1019.60 1018.86 1018.35 1018.15 1018.35 1018.51 1017.97 1017.72 1017.13 1017.15 1017.65 1017.87 1018.39 1018.96 1019.37 1019.91 1020.08 1019.95 1019.91 1019.70 1019.36 1019.11 1018.27 1017.47 1016.96 1016.43 1015.80 1015.73 1015.64 1015.79 1016.08 1016.21 1016.49 1016.87 1017.20 1018.02 1018.79 1018.71 1019.17 1020.12 1020.87 1021.53 1021.40 1020.75 1020.94 1021.46 1021.79 1022.01
1020.70 1020.51 1019.92 1019.31 1018.55 1018.48 1018.63 1018.32 1017.61 1017.18 1016.99 1017.61 1018.26 1018.80 1019.57 1019.99 1020.34 1020.50 1020.44 1020.34 1020.18 1019.86 1019.42 1019.07 1018.60 1017.81 1017.27 1016.30 1016.24 1016.19 1016.41 1016.75 1016.91 1016.79 1017.12 1017.47 1017.96 1018.67 1018.66 1019.63 1020.30 1020.61 1021.27 1021.22 1021.64 1021.51 1021.38 1022.09 1022.16
1021.30 1021.08 1020.43 1019.71 1019.19 1019.60 1019.16 1018.29 1017.65 1017.13 1016.92 1017.28 1018.42 1019.34 1020.17 1020.71 1020.97 1021.01 1021.01 1020.85 1020.66 1020.57 1020.02 1019.53 1019.25 1018.87 1018.11 1017.42 1016.90 1016.80 1016.92 1017.08 1017.28 1017.42 1017.57 1017.84 1018.20 1018.68 1019.09 1019.61 1020.17 1020.56 1021.18 1021.55 1021.91 1021.56 1021.85 1021.99 1022.16
1021.65 1021.59 1021.19 1020.85 1020.36 1020.14 1019.63 1018.18 1017.41 1016.46 1016.54 1017.99 1019.23 1020.25 1020.89 1021.43 1021.66 1021.79 1021.66 1021.67 1021.36 1021.11 1020.82 1020.29 1019.89 1019.55 1018.93 1018.10 1017.52 1017.28 1017.39 1017.59 1017.81 1017.94 1018.16 1018.33 1018.63 1018.89 1019.39 1019.74 1020.22 1020.64 1021.04 1021.67 1021.97 1021.97 1021.89 1022.07 1022.21
1022.00 1021.97 1021.88 1021.83 1021.91 1021.56 1020.84 1019.52 1018.34 1017.42 1017.82 1018.67 1019.69 1020.67 1021.31 1021.77 1022.11 1022.31 1022.33 1022.19 1022.00 1021.83 1021.49 1021.06 1020.53 1020.07 1019.66 1019.00 1018.57 1018.05 1018.03 1018.08 1018.41 1018.44 1018.47 1018.57 1018.85 1019.12 1019.70 1019.96 1020.33 1020.67 1021.07 1021.59 1021.70 1022.13 1022.08 1021.98 1021.99
1022.31 1022.47 1022.57 1022.80 1023.04 1022.86 1021.77 1021.31 1018.55 1018.05 1018.65 1019.22 1020.01 1020.93 1021.75 1022.25 1022.50 1022.70 1022.64 1022.58 1022.51 1022.32 1022.05 1021.76 1021.43 1020.83 1020.34 1020.12 1019.54 1019.14 1018.77 1018.78 1018.97 1019.05 1019.15 1019.32 1019.37 1019.47 1019.92 1020.15 1020.48 1020.93 1021.16 1021.53 1021.75 1021.96 1022.09 1022.14 1021.81
1022.72 1023.01 1023.03 1023.35 1024.02 1023.69 1022.27 1021.84 1019.69 1019.19 1019.49 1019.43 1020.15 1021.08 1021.82 1022.38 1022.71 1022.77 1022.88 1022.87 1022.87 1022.75 1022.47 1022.12 1022.00 1021.61 1021.10 1020.72 1020.44 1019.97 1019.80 1019.60 1019.53 1019.49 1019.63 1019.88 1020.00 1020.20 1020.42 1020.68 1020.97 1021.28 1021.54 1021.84 1021.87 1021.94 1022.11 1022.21 1021.87
1023.45 1023.97 1024.31 1024.65 1025.11 1024.31 1023.15 1022.28 1020.62 1020.20 1019.95 1019.88 1020.24 1021.04 1021.82 1022.41 1022.80 1023.13 1023.23 1023.26 1023.28 1023.15 1023.04 1022.80 1022.56 1022.39 1021.85 1021.42 1021.19 1021.04 1020.78 1020.48 1020.12 1020.13 1020.05 1020.12 1020.28 1020.37 1020.58 1020.85 1021.31 1021.51 1021.59 1021.87 1022.00 1022.09 1022.23 1022.37 1022.34
1023.76 1024.51 1025.44 1026.07 1025.93 1025.08 1023.86 1022.26 1020.61 1020.26 1020.21 1019.94 1020.22 1021.05 1021.80 1022.41 1022.88 1023.18 1023.32 1023.45 1023.52 1023.43 1023.42 1023.38 1023.24 1023.08 1022.82 1022.34 1021.99 1021.90 1021.70 1021.49 1021.19 1020.97 1020.71 1020.59 1020.39 1020.34 1020.35 1020.80 1021.05 1021.33 1021.57 1021.79 1022.19 1022.40 1022.48 1022.64 1022.58
1024.26 1024.72 1025.29 1026.24 1026.40 1026.34 1023.92 1021.93 1021.09 1020.80 1020.71 1020.80 1021.17 1021.55 1021.97 1022.43 1022.88 1023.28 1023.35 1023.56 1023.62 1023.62 1023.67 1023.71 1023.75 1023.69 1023.50 1023.38 1022.88 1022.47 1022.26 1022.11 1022.09 1021.93 1021.54 1021.23 1021.09 1020.71 1020.48 1020.71 1020.87 1021.16 1021.45 1021.68 1021.94 1022.25 1022.47 1022.65 1022.74
1024.70 1025.40 1025.94 1026.84 1027.29 1026.19 1024.06 1022.50 1021.36 1021.20 1021.21 1021.47 1021.61 1021.99 1022.27 1022.51 1022.87 1023.32 1023.58 1023.76 1023.72 1023.68 1023.69 1023.78 1023.86 1024.10 1024.04 1023.89 1023.76 1023.51 1023.21 1022.91 1022.69 1022.52 1022.42 1022.28 1021.94 1021.44 1020.96 1020.98 1020.72 1020.83 1021.06 1021.39 1021.73 1022.06 1022.36 1022.55 1022.75
1025.49 1025.90 1026.55 1027.14 1027.33 1026.80 1025.54 1022.49 1020.86 1021.16 1021.30 1021.25 1021.53 1021.87 1022.08 1022.50 1023.00 1023.32 1023.60 1023.84 1023.87 1023.86 1023.86 1023.94 1024.05 1024.21 1024.31 1024.33 1024.25 1024.17 1024.09 1023.86 1023.60 1023.27 1023.05 1022.86 1022.69 1022.54 1022.08 1021.60 1021.24 1021.11 1021.20 1021.30 1021.67 1021.92 1021.98 1022.36 1022.64
1025.86 1026.35 1027.07 1028.04 1027.70 1026.90 1025.83 1021.47 1022.00 1021.77 1021.64 1021.91 1021.78 1021.79 1022.01 1022.15 1022.73 1023.26 1023.56 1023.87 1024.09 1024.18 1024.23 1024.20 1024.15 1024.32 1024.48 1024.43 1024.47 1024.62 1024.60 1024.55 1024.44 1024.29 1023.88 1023.44 1023.10 1022.90 1022.40 1021.87 1021.51 1021.40 1021.32 1021.33 1021.49 1021.80 1022.05 1022.21 1022.37
Wind_Speed
16 9 5 4 3 3 6 6 7 9 6 11 9 6 8 7 7 3 2 8 4 10 8 6 6 7 7 6 5 4 5 4 3 7 10 10 9 8 9 9 9 10 14 14 12 13 10 10 10
9 14 4 4 3 3 6 11 13 11 7 9 9 8 10 10 13 6 7 10 7 7 7 6 6 6 6 5 5 4 4 4 5 7 9 9 9 8 8 9 8 10 11 15 14 14 10 10 10
11 8 3 3 2 3 4 8 8 10 7 5 6 7 6 7 12 6 7 5 6 4 5 7 5 5 6 4 6 6 5 5 5 6 7 8 8 9 8 8 8 10 11 14 17 13 10 9 10
5 3 3 2 6 10 7 9 10 8 6 7 7 8 6 11 7 9 14 8 6 6 6 6 5 4 5 4 5 6 6 6 6 6 7 8 9 10 10 10 11 15 17 15 14 13 11 11 10
4 3 3 2 4 5 8 9 9 7 5 8 8 8 5 12 9 11 8 10 6 6 3 5 6 6 6 6 6 7 6 6 7 7 8 9 12 13 15 16 16 15 15 16 15 13 12 12 11
3 1 3 3 9 8 6 10 8 8 9 9 8 9 3 10 12 10 7 8 7 4 4 2 5 4 3 9 5 10 7 8 7 9 10 12 15 16 16 16 15 16 16 15 15 14 13 13 11
4 2 3 6 4 3 5 7 7 6 8 9 5 6 3 13 9 9 7 5 6 6 6 6 2 3 6 3 7 8 8 7 7 10 13 13 14 15 15 15 16 16 16 15 15 14 13 13 12
4 3 2 4 6 4 6 6 5 5 6 9 2 5 9 7 9 7 8 12 11 8 7 6 5 4 5 9 13 10 16 13 7 10 10 11 13 15 14 11 15 16 16 16 15 14 14 13 11
3 3 2 4 1 5 6 4 6 8 7 6 3 1 9 12 9 8 6 7 6 12 13 7 6 7 9 7 11 15 14 18 19 9 7 10 8 10 9 12 14 15 16 16 15 14 14 13 10
4 3 6 4 6 5 8 7 8 6 8 8 10 13 12 12 8 7 10 10 11 11 12 12 6 5 5 5 5 9 9 8 8 11 13 4 6 8 11 12 14 14 14 14 13 11 10 5 4
3 4 6 3 7 8 6 7 6 7 8 6 7 9 11 9 10 10 8 7 8 8 9 12 9 4 3 4 1 2 5 4 2 4 9 13 2 8 6 5 4 4 7 4 5 4 4 7 5
4 1 4 5 5 4 6 9 8 9 10 7 7 6 8 9 9 9 8 7 7 8 9 11 10 8 3 2 2 2 5 4 3 5 7 8 7 6 4 3 4 3 3 5 5 4 5 7 6
6 5 5 6 5 6 7 7 9 10 7 7 8 7 6 7 8 8 8 8 8 9 8 9 9 9 2 1 2 2 1 2 4 4 8 6 4 5 3 4 4 3 3 4 5 5 5 5 6
6 7 9 7 6 7 7 7 6 3 7 6 6 6 6 7 8 7 9 9 9 10 9 9 9 8 7 3 4 3 2 3 3 3 3 10 9 5 6 5 4 4 3 3 4 5 5 4 5
5 6 9 9 7 4 4 8 11 4 3 6 6 6 7 7 8 8 8 8 9 9 9 10 9 9 8 3 4 4 3 4 4 3 5 8 10 10 5 5 7 5 4 5 4 5 5 5 5
3 5 4 7 4 4 1 8 7 5 1 5 7 5 6 7 8 9 9 8 8 9 10 9 8 8 8 2 3 3 5 4 5 6 5 7 9 11 10 7 5 4 4 3 1 3 4 4 5
5 5 5 4 4 2 6 8 2 5 4 5 6 5 6 7 9 8 8 8 8 9 11 10 8 9 10 4 2 3 2 1 2 3 6 8 7 8 8 6 7 4 3 1 1 3 4 4 5
7 5 6 3 5 6 8 14 12 10 6 5 5 3 5 7 7 7 9 8 8 8 11 12 11 12 12 3 4 3 4 3 3 3 5 9 7 7 8 7 6 5 2 0 2 3 3 4 4
5 7 9 10 11 1 6 13 13 11 6 6 6 3 6 6 6 8 8 8 8 9 9 11 12 12 9 3 2 2 2 2 3 3 6 8 8 7 9 6 6 4 2 4 3 1 6 2 4
6 9 9 10 4 4 9 16 14 18 14 7 4 5 7 7 7 8 8 9 9 9 10 12 13 12 9 7 3 3 3 3 3 3 5 5 7 7 6 7 5 6 5 5 3 2 3 1 4
6 6 7 10 10 7 12 14 9 8 7 9 7 5 4 6 7 7 8 8 8 9 11 11 10 12 10 10 5 3 3 3 2 2 3 3 6 6 6 6 6 5 4 4 2 2 3 3 3
5 7 8 8 6 3 4 8 4 10 5 6 6 3 6 6 6 7 7 8 8 8 8 11 11 11 11 12 8 9 5 3 3 2 3 3 4 6 4 5 4 4 4 4 3 3 3 2 3
1 5 5 6 7 8 5 4 3 6 6 7 8 6 7 5 5 6 6 7 7 7 7 7 9 12 12 11 10 7 7 5 4 4 4 5 4 4 4 4 4 4 3 3 5 2 2 2 1
7 6 8 5 3 2 6 4 5 3 3 7 8 7 7 5 5 5 6 6 7 7 7 7 8 9 11 12 12 11 10 8 6 5 4 3 3 3 3 3 3 3 3 3 3 3 3 3 3
1 3 5 5 2 7 6 6 4 4 4 2 9 8 7 5 5 5 5 5 6 7 8 7 8 9 9 10 11 12 11 8 8 7 4 3 2 1 3 3 3 3 3 3 3 2 2 1 2
3 4 3 5 3 9 12 6 5 2 3 3 7 8 7 6 4 5 4 4 4 6 7 7 8 7 8 8 9 9 10 7 7 7 4 3 1 3 2 3 4 3 4 3 3 1 0 2 2
2 3 1 1 4 2 5 8 2 3 1 3 5 5 6 7 5 5 4 4 4 5 6 6 7 7 7 8 7 8 9 9 8 9 8 7 6 4 3 2 4 5 5 5 4 3 3 2 1
3 3 1 2 3 6 5 12 14 7 6 6 7 6 7 6 6 4 4 3 3 3 4 5 6 6 6 7 6 6 7 8 8 7 9 8 9 10 8 5 2 4 4 4 4 3 3 3 2
2 1 3 3 2 3 6 9 6 4 3 9 8 8 7 7 6 5 2 3 3 2 2 3 5 5 5 5 5 6 6 7 7 8 8 8 7 7 6 6 5 3 4 4 4 4 4 4 4
3 3 2 4 11 7 9 23 7 4 4 7 6 7 6 8 7 4 1 4 5 4 4 4 2 3 2 3 4 4 5 5 6 6 7 8 8 9 9 9 7 6 3 4 4 4 4 5 5
Wind_Direction
309 295 292 290 276 210 257 82 52 9 35 21 326 318 296 290 8 9 81 2 40 95 105 154 172 163 153 160 183 180 166 159 149 158 166 157 152 149 146 141 143 146 137 127 124 113 102 93 88
307 301 263 280 257 277 56 29 44 32 9 4 325 7 355 73 16 77 26 0 351 117 137 146 151 168 155 179 187 192 183 175 155 163 158 149 147 147 144 143 145 149 143 131 122 103 97 96 93
266 279 283 306 276 356 32 50 30 8 10 47 325 336 296 355 28 355 45 1 352 324 154 103 129 159 168 193 213 194 190 193 176 169 161 154 151 141 137 135 138 144 136 121 106 107 104 96 90
313 226 233 266 304 59 30 6 11 355 338 328 2 321 71 38 10 0 3 4 358 334 84 114 144 205 170 178 224 223 198 191 186 179 169 162 147 127 121 118 116 112 108 105 113 115 109 98 91
239 260 280 226 292 48 35 27 6 316 327 5 38 326 23 56 27 3 17 330 354 351 333 147 183 216 194 162 213 229 214 201 187 185 164 148 130 121 115 116 113 113 112 114 112 108 102 93 85
264 266 255 270 32 59 76 39 308 3 344 48 31 327 318 53 28 5 11 334 333 347 347 349 199 231 227 219 197 226 214 211 192 167 153 147 130 123 124 116 116 115 116 112 109 105 100 92 83
307 313 342 351 346 49 55 360 25 341 331 33 335 314 270 40 19 9 345 309 312 25 342 334 271 238 260 253 226 241 228 215 192 165 148 138 126 120 120 119 120 116 112 108 105 100 95 89 80
299 285 289 135 20 352 68 328 127 307 322 322 345 338 321 9 19 2 25 353 347 358 351 352 343 330 355 16 23 41 25 347 186 154 138 125 113 108 107 110 113 113 109 106 102 97 89 82 77
279 273 265 51 344 30 120 355 324 350 296 277 259 264 355 357 22 342 6 42 28 358 335 351 359 64 86 77 63 45 31 43 16 2 143 131 132 122 110 101 105 109 109 107 103 101 100 91 74
292 318 37 30 357 337 353 348 325 327 315 300 17 359 356 350 337 352 25 18 8 356 340 352 30 50 86 86 65 76 54 58 54 52 359 289 116 99 85 78 83 92 97 104 109 115 131 110 97
26 319 37 359 34 0 331 303 333 312 296 35 359 349 338 354 6 18 21 24 1 334 350 341 357 83 32 45 47 77 118 119 20 31 48 9 56 102 101 97 88 105 113 110 103 87 59 61 71
301 135 328 340 71 323 317 326 304 288 278 59 332 18 343 358 7 3 13 10 0 359 340 339 341 329 34 89 96 113 113 118 99 78 83 52 326 80 95 90 104 89 86 92 79 74 82 73 71
233 322 346 295 303 275 298 290 272 282 309 15 314 331 354 358 7 353 17 2 356 355 338 340 329 329 231 175 119 130 149 131 129 117 117 99 19 42 47 87 73 72 80 99 105 97 85 81 83
4 314 290 288 281 285 268 274 293 54 21 333 294 317 346 351 7 358 13 352 353 340 334 331 335 313 308 194 173 195 157 120 109 71 95 121 113 47 35 29 60 41 64 89 115 113 104 93 81
293 303 292 233 219 276 347 278 225 108 32 300 286 353 360 346 16 15 9 350 346 333 327 336 329 325 302 243 211 188 181 141 109 105 131 117 117 111 75 44 29 14 43 47 68 86 88 85 87
259 249 304 52 130 160 194 282 83 98 355 301 314 356 2 357 18 24 2 359 349 331 334 324 332 316 315 265 224 131 160 158 141 141 121 125 139 142 136 134 92 33 357 19 354 117 111 108 101
191 277 247 186 167 10 180 289 123 169 217 288 304 9 360 7 26 20 6 357 347 355 332 333 326 9 339 66 35 72 66 69 107 133 136 131 128 131 118 131 121 107 51 252 200 69 104 102 95
337 283 311 257 173 199 273 277 283 268 163 245 305 22 4 27 26 21 11 8 356 8 354 351 356 7 344 41 52 50 62 52 83 101 111 114 116 132 122 119 126 135 163 164 65 109 97 121 126
348 307 289 292 302 315 260 277 286 283 196 192 231 66 29 30 38 32 15 12 10 9 6 8 358 1 354 333 81 68 65 54 42 79 106 124 129 126 120 138 147 130 109 157 191 147 101 94 120
309 289 284 284 27 12 297 275 285 279 274 165 72 37 42 22 21 28 22 23 17 8 4 18 8 358 3 351 4 21 67 47 65 78 97 110 121 135 142 131 131 138 142 151 185 161 113 115 207
280 267 281 279 320 300 283 277 271 316 213 92 85 56 75 50 28 25 25 28 16 17 8 16 19 3 6 7 360 52 87 83 43 53 87 108 124 129 134 136 144 139 122 139 133 131 123 154 251
300 3 347 329 325 266 24 286 273 298 112 127 134 186 92 52 50 33 21 30 28 14 5 17 21 22 12 14 19 43 51 46 19 31 60 73 110 109 122 123 128 135 136 147 151 214 238 185 175
352 351 338 318 301 313 262 260 265 333 180 176 155 126 84 79 62 54 29 37 33 17 17 9 17 24 23 23 26 31 45 55 39 47 55 62 54 78 98 124 132 140 142 168 170 219 282 293 126
336 299 279 245 261 317 250 236 283 63 19 358 118 141 139 115 111 86 61 45 31 21 14 23 23 18 20 25 23 31 33 46 45 45 62 54 77 90 103 107 125 140 143 176 127 120 63 359 12
74 334 328 344 355 227 46 331 267 39 8 38 157 159 143 172 102 73 54 41 36 28 18 23 19 17 13 20 26 23 18 26 47 41 33 47 64 110 139 146 156 166 156 173 175 175 166 26 23
238 176 169 269 326 299 321 251 263 86 349 298 123 137 140 153 140 114 89 70 52 40 31 22 25 24 10 14 19 22 22 22 18 16 38 43 12 46 136 164 170 181 170 175 179 195 43 2 357
18 217 343 329 229 323 239 269 169 79 355 70 120 146 174 188 151 139 107 75 51 47 47 41 29 26 21 14 11 20 16 20 21 18 18 13 13 359 35 223 190 180 188 184 174 196 197 181 300
216 3 85 304 290 261 276 298 286 277 220 214 222 211 214 175 147 149 80 41 32 45 49 48 47 42 31 20 16 20 12 13 17 21 23 15 2 4 1 353 308 197 187 186 183 179 172 189 194
164 231 217 254 249 229 295 266 3 46 337 212 222 206 215 165 175 148 107 30 7 345 96 66 38 34 34 37 28 24 18 19 17 13 6 7 1 1 354 345 340 350 179 180 190 196 178 184 196
40 313 291 172 269 249 268 272 71 60 308 339 236 215 213 167 160 156 68 52 13 21 17 16 97 78 32 24 27 40 41 30 25 12 357 357 0 0 352 350 349 349 340 182 182 198 190 192 192